Location: Althorst
(53.6379°N, 10.7715°E)
Time: 10:29:41
(UTC+00:00)

Cosmos 1140 Rocket - Pass Details

Date: 10 December 2019
Orbit: 744 x 768 km, 74.1° (Epoch: 23 January)

Event Time Altitude Azimuth Distance (km) Brightness Sun altitude
Rises 17:45:06 0° 185° (S) 3,174 6.8 -23.4°
Reaches altitude 10° 17:47:31 10° 179° (S) 2,256 6.0 -23.8°
Enters shadow 17:50:29 32° 157° (SSE) 1,269 4.4 -24.2°
